Simultaneous Nadir Overpasses (SNOs) Predictions

Prediction of SNOs between LANDSAT-8 and NOAA-19 Satellite Orbit:

Table of predicted SNOs for the next 14.0 days since TLE Epoch: 1/29/2022
Index Date (LANDSAT-8) Time (LANDSAT-8) Lat,Lon (LANDSAT-8) SZA (LANDSAT-8 ) Date (NOAA-19) Time (NOAA-19) Lat,Lon (NOAA-19) SZA (NOAA-19 ) Distance(km) Time Diff (sec)
1 01/29/2022 05:09:42 -80.67, -43.52 80.19 01/29/2022 05:09:11 -80.68, -43.45 80.19 1.65 31
2 01/29/2022 05:59:08 80.68, 124.21 99.82 01/29/2022 06:00:14 80.67, 124.26 99.83 1.82 66
3 01/31/2022 10:43:25 80.70, 53.33 99.24 01/31/2022 10:42:18 80.68, 53.35 99.20 1.77 67
4 01/31/2022 11:32:52 -80.69,-139.08 80.79 01/31/2022 11:33:13 -80.68,-139.21 80.80 3.10 21
5 02/02/2022 17:06:36 80.69, -42.60 98.56 02/02/2022 17:06:21 80.69, -42.69 98.55 1.67 15
6 02/02/2022 17:56:03 -80.68, 125.01 81.46 02/02/2022 17:57:15 -80.67, 125.01 81.44 1.30 72
7 02/04/2022 22:40:20 -80.70, 54.09 82.09 02/04/2022 22:39:19 -80.69, 53.95 82.12 2.45 61
8 02/04/2022 23:29:47 80.67,-138.57 97.86 02/04/2022 23:30:23 80.68,-138.41 97.89 2.87 36
9 02/07/2022 05:03:31 -80.68, -41.89 82.81 02/07/2022 05:03:21 -80.69, -41.86 82.81 0.99 10
10 02/09/2022 10:37:14 80.69, 54.78 96.50 02/09/2022 10:36:29 80.69, 54.77 96.49 0.50 45
11 02/09/2022 11:26:41 -80.69,-137.56 83.51 02/09/2022 11:27:23 -80.69,-137.69 83.51 2.41 42



Historial Predications of SNOs between LANDSAT-8 and NOAA-19
